TimeMST,TemperatureF,Dew PointF,Humidity,Sea Level PressureIn,VisibilityMPH,Wind Direction,Wind SpeedMPH,Gust SpeedMPH,PrecipitationIn,Events,Conditions,WindDirDegrees,DateUTC
12:53 AM,23.0,8.1,53,30.24,10.0,WSW,4.6,-,N/A,,Overcast,250,2014-01-08 07:53:00
1:53 AM,23.0,8.1,53,30.23,10.0,North,3.5,-,N/A,,Overcast,360,2014-01-08 08:53:00
2:53 AM,24.1,8.1,51,30.22,10.0,Calm,Calm,-,N/A,,Overcast,0,2014-01-08 09:53:00
3:53 AM,24.1,8.1,51,30.22,10.0,Calm,Calm,-,N/A,,Overcast,0,2014-01-08 10:53:00
4:53 AM,24.1,9.0,53,30.21,10.0,Calm,Calm,-,N/A,,Overcast,0,2014-01-08 11:53:00
5:53 AM,24.1,9.0,53,30.23,10.0,Calm,Calm,-,N/A,,Overcast,0,2014-01-08 12:53:00
6:53 AM,23.0,9.0,55,30.25,10.0,NNE,3.5,-,N/A,,Mostly Cloudy,20,2014-01-08 13:53:00
7:53 AM,23.0,9.0,55,30.27,10.0,East,3.5,-,N/A,,Overcast,90,2014-01-08 14:53:00
8:53 AM,23.0,10.0,58,30.27,10.0,Calm,Calm,-,N/A,,Overcast,0,2014-01-08 15:53:00
9:53 AM,26.1,8.1,47,30.28,10.0,Calm,Calm,-,N/A,,Overcast,0,2014-01-08 16:53:00
10:53 AM,30.0,8.1,40,30.25,10.0,SSE,3.5,-,N/A,,Clear,150,2014-01-08 17:53:00
11:53 AM,32.0,9.0,38,30.21,10.0,Calm,Calm,-,N/A,,Clear,0,2014-01-08 18:53:00
12:53 PM,35.1,9.0,34,30.17,10.0,South,4.6,-,N/A,,Partly Cloudy,170,2014-01-08 19:53:00
1:53 PM,35.1,12.0,39,30.15,10.0,East,3.5,-,N/A,,Mostly Cloudy,90,2014-01-08 20:53:00
2:53 PM,36.0,15.1,43,30.14,10.0,Variable,3.5,-,N/A,,Mostly Cloudy,0,2014-01-08 21:53:00
3:53 PM,35.1,12.9,40,30.16,10.0,SSE,5.8,-,N/A,,Mostly Cloudy,160,2014-01-08 22:53:00
4:53 PM,34.0,10.9,38,30.17,10.0,SSE,4.6,-,N/A,,Overcast,150,2014-01-08 23:53:00
5:53 PM,30.9,10.9,43,30.19,10.0,East,3.5,-,N/A,,Mostly Cloudy,80,2014-01-09 00:53:00
6:53 PM,28.9,12.0,49,30.21,10.0,ENE,5.8,-,N/A,,Mostly Cloudy,70,2014-01-09 01:53:00
7:53 PM,24.1,12.9,62,30.24,10.0,NNE,5.8,-,N/A,,Clear,20,2014-01-09 02:53:00
8:53 PM,24.1,14.0,65,30.25,10.0,Calm,Calm,-,N/A,,Clear,0,2014-01-09 03:53:00
9:53 PM,23.0,10.0,58,30.25,10.0,Calm,Calm,-,N/A,,Scattered Clouds,0,2014-01-09 04:53:00
10:53 PM,23.0,12.9,65,30.24,10.0,ESE,4.6,-,N/A,,Clear,110,2014-01-09 05:53:00
11:53 PM,19.9,12.0,71,30.24,10.0,NNE,8.1,-,N/A,,Scattered Clouds,30,2014-01-09 06:53:00